No particular awareness of the weather is required.    There are no Weather-warnings


Meteo18 Weather Cam more information Meteo18 Weather Cam


Thunder radar more information blitzortung!


Rain radar more information rain snow radar


Visit our other weather sites:

Template documentation
and downloads

And another site



Weather Underground History page Text

Daily Summary for May 9, 2017 Units:  English    Metric   Both
« Previous Day
Next Day »
Daily Weekly Monthly Yearly Custom
  High: Low: Average:
Temperature: 60.6 °F 47.1 °F 52.5 °F
Dew Point: 45.7 °F 42.1 °F 44.2 °F
Humidity: 93 % 54 % 75 %
Wind Speed: 15 mph 0 mph 5.5 mph
Wind Gust: 19 mph - -
Wind:- - ENE
Pressure: 30.2 in 29.9 in -
Precipitation: 0 in    
Historical Graphs
 
 
Tabular Data for May 9, 2017
Time Temperature Dew Point Pressure Wind Wind Speed Wind Gust Humidity Rainfall Rate (Hourly)
00:02 48.4 °F 43.5 °F 30.2 in NNW 1 mph 4 mph 83 % 0 in
00:07 48.4 °F 43.7 °F 30.2 in NNW 1 mph 4 mph 84 % 0 in
00:12 48.4 °F 43.7 °F 30.2 in Calm   4 mph 84 % 0 in
00:17 48.4 °F 43.7 °F 30.2 in Calm   4 mph 84 % 0 in
00:22 48.4 °F 43.7 °F 30.2 in North 4 mph 4 mph 84 % 0 in
00:32 48.4 °F 43.7 °F 30.2 in Calm   6 mph 84 % 0 in
00:37 48.4 °F 43.7 °F 30.2 in Calm   4 mph 84 % 0 in
00:47 48.4 °F 44.1 °F 30.2 in Calm   3 mph 85 % 0 in
00:52 48.4 °F 44.1 °F 30.2 in Calm   2 mph 85 % 0 in
00:57 48.2 °F 43.9 °F 30.2 in Calm   2 mph 85 % 0 in
01:02 48.2 °F 44.2 °F 30.2 in Calm     86 % 0 in
01:07 48 °F 44.1 °F 30.2 in Calm     86 % 0 in
01:12 48 °F 44.1 °F 30.2 in Calm     86 % 0 in
01:17 48 °F 44.4 °F 30.2 in Calm     87 % 0 in
01:22 48 °F 44.4 °F 30.2 in Calm     87 % 0 in
01:32 47.8 °F 44.2 °F 30.2 in Calm     87 % 0 in
01:37 48 °F 44.4 °F 30.2 in Calm     87 % 0 in
01:42 48 °F 44.6 °F 30.2 in Calm     88 % 0 in
01:47 47.8 °F 44.4 °F 30.2 in Calm     88 % 0 in
01:52 47.8 °F 44.4 °F 30.2 in Calm   1 mph 88 % 0 in
01:57 47.7 °F 44.2 °F 30.2 in Calm   2 mph 88 % 0 in
02:02 47.7 °F 44.6 °F 30.2 in Calm   2 mph 89 % 0 in
02:12 47.7 °F 44.6 °F 30.2 in North 2 mph 4 mph 89 % 0 in
02:17 47.7 °F 45 °F 30.2 in NNE 2 mph 4 mph 90 % 0 in
02:22 47.7 °F 45 °F 30.2 in North 5 mph 5 mph 90 % 0 in
02:27 47.7 °F 45 °F 30.2 in NE 1 mph 7 mph 90 % 0 in
02:32 47.7 °F 45 °F 30.2 in NW 2 mph 7 mph 90 % 0 in
02:37 47.7 °F 45.1 °F 30.2 in North 2 mph 7 mph 91 % 0 in
02:42 47.7 °F 45.1 °F 30.2 in NNW 1 mph 7 mph 91 % 0 in
02:47 47.5 °F 45 °F 30.2 in NE 3 mph 6 mph 91 % 0 in
02:52 47.5 °F 45.3 °F 30.2 in NE 1 mph 5 mph 92 % 0 in
02:57 47.5 °F 45.3 °F 30.2 in NE 3 mph 5 mph 92 % 0 in
03:02 47.5 °F 45.3 °F 30.2 in NNE 2 mph 5 mph 92 % 0 in
03:07 47.3 °F 45.1 °F 30.2 in NNE 3 mph 5 mph 92 % 0 in
03:12 47.3 °F 45.1 °F 30.2 in NE 2 mph 5 mph 92 % 0 in
03:17 47.3 °F 45.1 °F 30.2 in NNW 1 mph 4 mph 92 % 0 in
03:22 47.1 °F 45 °F 30.2 in NNE 1 mph 4 mph 92 % 0 in
03:27 47.1 °F 45.1 °F 30.2 in Calm   5 mph 93 % 0 in
03:32 47.1 °F 45.1 °F 30.2 in NE 3 mph 5 mph 93 % 0 in
03:37 47.1 °F 45.1 °F 30.2 in NNE 5 mph 8 mph 93 % 0 in
03:42 47.1 °F 45.1 °F 30.2 in NNE 5 mph 8 mph 93 % 0 in
03:52 47.1 °F 45.1 °F 30.2 in NNW 2 mph 9 mph 93 % 0 in
03:57 47.1 °F 45.1 °F 30.2 in ENE 4 mph 9 mph 93 % 0 in
04:02 47.1 °F 45.1 °F 30.2 in NE 6 mph 9 mph 93 % 0 in
04:07 47.1 °F 45.1 °F 30.2 in NNE 4 mph 9 mph 93 % 0 in
04:12 47.1 °F 45.1 °F 30.2 in NE 5 mph 9 mph 93 % 0 in
04:17 47.1 °F 45 °F 30.2 in NNE 3 mph 8 mph 92 % 0 in
04:22 47.3 °F 45.1 °F 30.2 in ENE 2 mph 9 mph 92 % 0 in
04:27 47.3 °F 45.1 °F 30.1 in NNE 4 mph 9 mph 92 % 0 in
04:32 47.3 °F 45.1 °F 30.1 in NE 3 mph 9 mph 92 % 0 in
04:37 47.3 °F 45.1 °F 30.2 in North 3 mph 9 mph 92 % 0 in
04:42 47.3 °F 45.1 °F 30.2 in NNW 3 mph 8 mph 92 % 0 in
04:47 47.3 °F 45.1 °F 30.2 in NNW 2 mph 9 mph 92 % 0 in
04:52 47.3 °F 45.1 °F 30.1 in North 3 mph 9 mph 92 % 0 in
04:57 47.3 °F 44.8 °F 30.1 in NE 3 mph 9 mph 91 % 0 in
05:02 47.3 °F 44.8 °F 30.1 in NNW 3 mph 9 mph 91 % 0 in
05:07 47.3 °F 44.8 °F 30.1 in East 2 mph 9 mph 91 % 0 in
05:12 47.3 °F 44.8 °F 30.1 in NE 2 mph 9 mph 91 % 0 in
05:17 47.3 °F 44.8 °F 30.1 in NNE 6 mph 6 mph 91 % 0 in
05:22 47.3 °F 44.8 °F 30.1 in NNE 2 mph 6 mph 91 % 0 in
05:32 47.3 °F 44.8 °F 30.1 in NE 5 mph 8 mph 91 % 0 in
05:42 47.3 °F 45.1 °F 30.1 in NNE 4 mph 8 mph 92 % 0 in
05:47 47.3 °F 45.1 °F 30.1 in NNE 6 mph 11 mph 92 % 0 in
05:52 47.3 °F 45.1 °F 30.1 in NNE 2 mph 11 mph 92 % 0 in
05:57 47.3 °F 45.1 °F 30.1 in NW 2 mph 10 mph 92 % 0 in
06:02 47.3 °F 45.1 °F 30.1 in NE 5 mph 10 mph 92 % 0 in
06:07 47.3 °F 45.1 °F 30.1 in NE 1 mph 8 mph 92 % 0 in
06:12 47.3 °F 45.1 °F 30.1 in Calm   8 mph 92 % 0 in
06:17 47.1 °F 45 °F 30.1 in NNE 2 mph 8 mph 92 % 0 in
06:22 47.1 °F 45 °F 30.1 in NE 2 mph 7 mph 92 % 0 in
06:32 47.1 °F 45.1 °F 30.1 in Calm   6 mph 93 % 0 in
06:37 47.1 °F 45.1 °F 30.1 in Calm   5 mph 93 % 0 in
06:42 47.1 °F 45.1 °F 30.1 in NE 1 mph 5 mph 93 % 0 in
06:47 47.1 °F 45.1 °F 30.1 in NE 3 mph 3 mph 93 % 0 in
06:52 47.1 °F 45.1 °F 30.1 in NE 2 mph 5 mph 93 % 0 in
07:02 47.1 °F 45.1 °F 30.1 in NE 2 mph 5 mph 93 % 0 in
07:12 47.1 °F 45.1 °F 30.1 in NNE 3 mph 5 mph 93 % 0 in
07:17 47.3 °F 45.3 °F 30.1 in NNE 2 mph 5 mph 93 % 0 in
07:22 47.3 °F 45.3 °F 30.1 in NNE 2 mph 5 mph 93 % 0 in
07:27 47.3 °F 45.3 °F 30.1 in North 5 mph 6 mph 93 % 0 in
07:32 47.5 °F 45.5 °F 30.1 in NE 2 mph 6 mph 93 % 0 in
07:37 47.5 °F 45.5 °F 30.1 in NE 4 mph 6 mph 93 % 0 in
07:42 47.5 °F 45.5 °F 30.1 in NE 3 mph 6 mph 93 % 0 in
07:47 47.5 °F 45.5 °F 30.1 in NNE 2 mph 7 mph 93 % 0 in
07:57 47.7 °F 45.7 °F 30.1 in North 1 mph 9 mph 93 % 0 in
08:02 47.7 °F 45.7 °F 30.1 in NE 6 mph 9 mph 93 % 0 in
08:07 47.7 °F 45.7 °F 30.1 in NE 3 mph 9 mph 93 % 0 in
08:12 47.7 °F 45.7 °F 30.1 in NE 3 mph 9 mph 93 % 0 in
08:17 47.5 °F 45.3 °F 30.1 in NNE 4 mph 11 mph 92 % 0 in
08:22 47.3 °F 45.1 °F 30.1 in NNE 5 mph 11 mph 92 % 0 in
08:27 47.5 °F 45.3 °F 30.1 in NE 3 mph 12 mph 92 % 0 in
08:32 47.7 °F 45.5 °F 30.1 in NNE 5 mph 12 mph 92 % 0 in
08:37 47.8 °F 45.3 °F 30.1 in NNE 3 mph 9 mph 91 % 0 in
08:42 48.2 °F 45.7 °F 30.1 in NNE 5 mph 9 mph 91 % 0 in
08:47 48.4 °F 45.5 °F 30.1 in NNE 7 mph 12 mph 90 % 0 in
08:52 48.7 °F 45.7 °F 30.1 in East 5 mph 12 mph 89 % 0 in
08:57 48.9 °F 45.5 °F 30.1 in NNE 4 mph 13 mph 88 % 0 in
09:02 49.3 °F 45.3 °F 30.1 in NE 4 mph 13 mph 86 % 0 in
09:07 49.5 °F 44.8 °F 30.1 in ENE 6 mph 14 mph 84 % 0 in
09:12 49.5 °F 45.1 °F 30.1 in NE 7 mph 14 mph 85 % 0 in
09:17 49.8 °F 45.1 °F 30.1 in NE 6 mph 14 mph 84 % 0 in
09:22 49.6 °F 45 °F 30.1 in NE 4 mph 14 mph 84 % 0 in
09:32 49.1 °F 44.4 °F 30.1 in NNE 12 mph 13 mph 84 % 0 in
09:37 48.9 °F 44.2 °F 30.1 in ENE 7 mph 13 mph 84 % 0 in
09:42 49.3 °F 44.6 °F 30.1 in NE 8 mph 13 mph 84 % 0 in
09:47 50.5 °F 45 °F 30.1 in ENE 11 mph 16 mph 81 % 0 in
09:52 51.3 °F 45.7 °F 30.1 in East 4 mph 16 mph 81 % 0 in
09:57 51.1 °F 44.8 °F 30.1 in NE 12 mph 17 mph 79 % 0 in
10:07 51.1 °F 44.8 °F 30.1 in NE 9 mph 17 mph 79 % 0 in
10:12 51.4 °F 45.1 °F 30.1 in NE 7 mph 17 mph 79 % 0 in
10:17 51.1 °F 44.8 °F 30.1 in NE 5 mph 16 mph 79 % 0 in
10:22 50.7 °F 44.8 °F 30.1 in NE 10 mph 16 mph 80 % 0 in
10:27 50.4 °F 44.4 °F 30.1 in NE 7 mph 12 mph 80 % 0 in
10:32 50.5 °F 45.3 °F 30.1 in ENE 3 mph 12 mph 82 % 0 in
10:42 51.3 °F 43.9 °F 30.1 in NNE 10 mph 12 mph 76 % 0 in
10:52 51.6 °F 44.2 °F 30.1 in NNE 11 mph 16 mph 76 % 0 in
10:57 52.2 °F 44.4 °F 30.1 in East 11 mph 16 mph 75 % 0 in
11:02 52.5 °F 44.4 °F 30.1 in NE 6 mph 16 mph 74 % 0 in
11:12 53.2 °F 44.4 °F 30.1 in NNE 12 mph 14 mph 72 % 0 in
11:17 52.9 °F 44.4 °F 30.1 in NE 12 mph 17 mph 73 % 0 in
11:22 53.4 °F 43.9 °F 30.1 in ENE 8 mph 17 mph 70 % 0 in
11:27 52.9 °F 44.4 °F 30.1 in ENE 7 mph 17 mph 73 % 0 in
11:32 52.5 °F 43.7 °F 30.1 in ENE 4 mph 17 mph 72 % 0 in
11:37 52.9 °F 44.4 °F 30.1 in NE 6 mph 17 mph 73 % 0 in
11:42 53.4 °F 44.2 °F 30.1 in ENE 15 mph 17 mph 71 % 0 in
11:47 53.8 °F 45 °F 30.1 in NE 11 mph 19 mph 72 % 0 in
11:52 53.8 °F 44.2 °F 30.1 in NE 4 mph 19 mph 70 % 0 in
11:57 54.3 °F 45.5 °F 30.1 in ENE 6 mph 18 mph 72 % 0 in
12:02 54.5 °F 44.6 °F 30.1 in East 9 mph 18 mph 69 % 0 in
12:12 53.6 °F 43.3 °F 30.1 in NE 12 mph 19 mph 68 % 0 in
12:17 53.8 °F 43.2 °F 30.1 in NNE 11 mph 19 mph 67 % 0 in
12:22 54.1 °F 43.9 °F 30.1 in ENE 11 mph 19 mph 68 % 0 in
12:32 54.9 °F 44.1 °F 30.1 in NE 8 mph 15 mph 67 % 0 in
12:37 55.2 °F 44.1 °F 30.1 in NE 12 mph 16 mph 66 % 0 in
12:42 54.7 °F 43.2 °F 30.1 in NNE 7 mph 16 mph 65 % 0 in
12:47 54.1 °F 43.3 °F 30.1 in ENE 10 mph 18 mph 67 % 0 in
12:52 54.9 °F 43 °F 30.1 in East 9 mph 18 mph 64 % 0 in
12:57 55.8 °F 43.7 °F 30.1 in East 12 mph 15 mph 64 % 0 in
13:02 55.2 °F 43.3 °F 30.1 in NE 13 mph 15 mph 64 % 0 in
13:07 55.6 °F 43.5 °F 30.1 in ENE 5 mph 17 mph 64 % 0 in
13:12 55.9 °F 44.4 °F 30.1 in NE 12 mph 17 mph 65 % 0 in
13:17 56.3 °F 43.5 °F 30.1 in NNE 9 mph 17 mph 62 % 0 in
13:22 55.6 °F 42.8 °F 30.1 in NE 6 mph 16 mph 62 % 0 in
13:27 55.8 °F 42.1 °F 30.1 in ENE 8 mph 16 mph 60 % 0 in
13:32 56.1 °F 42.8 °F 30.1 in East 11 mph 16 mph 61 % 0 in
13:37 56.1 °F 43.7 °F 30.1 in NE 10 mph 15 mph 63 % 0 in
13:42 57 °F 44.1 °F 30.1 in ENE 7 mph 15 mph 62 % 0 in
13:47 57.2 °F 43.5 °F 30.1 in ENE 3 mph 15 mph 60 % 0 in
13:52 57.7 °F 43.5 °F 30.1 in East 4 mph 15 mph 59 % 0 in
13:57 58.3 °F 45 °F 30.1 in NNE 7 mph 15 mph 61 % 0 in
14:02 57.7 °F 43.9 °F 30.1 in NE 11 mph 17 mph 60 % 0 in
14:07 57.6 °F 43 °F 30.1 in ENE 8 mph 17 mph 58 % 0 in
14:12 57.7 °F 42.6 °F 30.1 in NE 7 mph 15 mph 57 % 0 in
14:17 58.5 °F 43.3 °F 30.1 in ENE 6 mph 14 mph 57 % 0 in
14:22 58.6 °F 43.9 °F 30.1 in ENE 8 mph 14 mph 58 % 0 in
14:27 58.3 °F 44.1 °F 30.1 in NE 11 mph 14 mph 59 % 0 in
14:32 58.5 °F 44.2 °F 30.1 in East 7 mph 15 mph 59 % 0 in
14:37 58.8 °F 42.6 °F 30 in ENE 6 mph 15 mph 55 % 0 in
14:42 58.6 °F 43 °F 30 in ENE 11 mph 15 mph 56 % 0 in
14:47 58.1 °F 43.9 °F 30 in North 6 mph 14 mph 59 % 0 in
14:52 58.3 °F 44.4 °F 30 in East 8 mph 14 mph 60 % 0 in
14:57 58.1 °F 43.3 °F 30 in NNE 5 mph 14 mph 58 % 0 in
15:02 58.3 °F 42.6 °F 30 in NNE 5 mph 14 mph 56 % 0 in
15:12 59.2 °F 44.8 °F 30 in North 8 mph 17 mph 59 % 0 in
15:17 58.8 °F 45 °F 30 in NNE 14 mph 17 mph 60 % 0 in
15:22 58.6 °F 45.3 °F 30 in NE 4 mph 17 mph 61 % 0 in
15:27 59 °F 43.3 °F 30 in NNW 6 mph 17 mph 56 % 0 in
15:32 58.8 °F 43.2 °F 30 in ENE 5 mph 16 mph 56 % 0 in
15:42 59.4 °F 44.1 °F 30 in NE 6 mph 18 mph 57 % 0 in
15:47 58.8 °F 43.2 °F 30 in NNE 11 mph 18 mph 56 % 0 in
15:52 58.8 °F 44.6 °F 30 in ENE 5 mph 18 mph 59 % 0 in
15:57 59.4 °F 44.1 °F 30 in NNE 11 mph 16 mph 57 % 0 in
16:02 59.7 °F 45.3 °F 30 in NE 5 mph 17 mph 59 % 0 in
16:07 60.1 °F 44.8 °F 30 in ENE 3 mph 17 mph 57 % 0 in
16:12 59.9 °F 43.2 °F 30 in NE 9 mph 17 mph 54 % 0 in
16:17 59.5 °F 44.8 °F 30 in NE 10 mph 18 mph 58 % 0 in
16:22 59.7 °F 45 °F 30 in NE 8 mph 18 mph 58 % 0 in
16:27 59.4 °F 43.2 °F 30 in ENE 4 mph 18 mph 55 % 0 in
16:32 59.5 °F 43.9 °F 30 in NNE 7 mph 17 mph 56 % 0 in
16:37 60.1 °F 44.8 °F 30 in NE 8 mph 14 mph 57 % 0 in
16:42 60.3 °F 45 °F 30 in ENE 9 mph 14 mph 57 % 0 in
16:47 60.1 °F 43.3 °F 30 in NE 4 mph 16 mph 54 % 0 in
16:52 60.1 °F 44.4 °F 30 in NE 9 mph 16 mph 56 % 0 in
16:57 60.1 °F 44.8 °F 30 in WNW 6 mph 16 mph 57 % 0 in
17:02 60.1 °F 44.4 °F 30 in ENE 10 mph 16 mph 56 % 0 in
17:12 60.3 °F 45 °F 30 in NE 10 mph 19 mph 57 % 0 in
17:22 60.1 °F 43.3 °F 30 in NNE 10 mph 19 mph 54 % 0 in
17:27 59.9 °F 43.7 °F 30 in NNW 7 mph 16 mph 55 % 0 in
17:32 60.1 °F 44.4 °F 30 in NE 7 mph 18 mph 56 % 0 in
17:42 60.6 °F 45.3 °F 30 in NNE 14 mph 18 mph 57 % 0 in
17:47 60.4 °F 44.2 °F 30 in NE 6 mph 18 mph 55 % 0 in
17:52 60.4 °F 44.2 °F 30 in ENE 7 mph 18 mph 55 % 0 in
17:57 60.6 °F 45.7 °F 30 in NE 8 mph 18 mph 58 % 0 in
18:02 60.3 °F 44.4 °F 30 in NW 6 mph 18 mph 56 % 0 in
18:07 59.9 °F 44.2 °F 30 in NE 10 mph 18 mph 56 % 0 in
18:17 60.4 °F 44.2 °F 29.9 in North 9 mph 16 mph 55 % 0 in
18:22 60.3 °F 44.4 °F 29.9 in NE 9 mph 16 mph 56 % 0 in
18:27 60.3 °F 44.4 °F 29.9 in NE 10 mph 15 mph 56 % 0 in
18:37 59.7 °F 44.1 °F 29.9 in NNE 8 mph 17 mph 56 % 0 in
18:42 59.9 °F 44.2 °F 29.9 in NE 8 mph 17 mph 56 % 0 in
18:52 59.9 °F 43.7 °F 29.9 in NE 6 mph 17 mph 55 % 0 in
18:57 59.7 °F 44.1 °F 29.9 in NW 4 mph 19 mph 56 % 0 in
19:02 59.5 °F 44.2 °F 29.9 in NE 9 mph 19 mph 57 % 0 in
19:12 59.5 °F 44.2 °F 29.9 in NE 7 mph 16 mph 57 % 0 in
19:17 59.5 °F 43.9 °F 29.9 in NE 11 mph 14 mph 56 % 0 in
19:22 59.5 °F 44.2 °F 29.9 in NNE 10 mph 14 mph 57 % 0 in
19:27 59.4 °F 44.1 °F 29.9 in ENE 6 mph 14 mph 57 % 0 in
19:32 59 °F 43.7 °F 29.9 in NE 11 mph 16 mph 57 % 0 in
19:37 59 °F 44.2 °F 29.9 in NE 7 mph 16 mph 58 % 0 in
19:42 59 °F 43.7 °F 29.9 in ENE 10 mph 16 mph 57 % 0 in
19:47 58.8 °F 43.7 °F 29.9 in ENE 9 mph 14 mph 57 % 0 in
19:52 58.6 °F 43.9 °F 29.9 in NE 5 mph 14 mph 58 % 0 in
19:57 58.5 °F 44.2 °F 29.9 in North 10 mph 15 mph 59 % 0 in
20:02 58.3 °F 43.5 °F 29.9 in ENE 8 mph 16 mph 58 % 0 in
20:12 57.9 °F 43.2 °F 29.9 in NNE 9 mph 16 mph 58 % 0 in
20:17 57.9 °F 43.7 °F 29.9 in NNE 8 mph 15 mph 59 % 0 in
20:22 57.6 °F 43.7 °F 29.9 in NE 5 mph 15 mph 60 % 0 in
20:27 57.6 °F 43.7 °F 29.9 in NE 8 mph 15 mph 60 % 0 in
20:32 57.2 °F 43.9 °F 29.9 in NE 6 mph 15 mph 61 % 0 in
20:37 57 °F 43.7 °F 29.9 in NNW 5 mph 15 mph 61 % 0 in
20:42 56.7 °F 43.3 °F 29.9 in NE 5 mph 15 mph 61 % 0 in
20:47 56.5 °F 43.7 °F 29.9 in NNE 5 mph 13 mph 62 % 0 in
20:52 56.1 °F 43.7 °F 29.9 in NE 9 mph 13 mph 63 % 0 in
20:57 55.8 °F 43.3 °F 29.9 in NE 6 mph 13 mph 63 % 0 in
21:02 55.6 °F 43.5 °F 29.9 in NNE 8 mph 12 mph 64 % 0 in
21:12 55 °F 43.5 °F 29.9 in NE 6 mph 13 mph 65 % 0 in
21:17 54.7 °F 43.5 °F 29.9 in NNE 4 mph 13 mph 66 % 0 in
21:22 54.5 °F 43.3 °F 29.9 in NE 6 mph 11 mph 66 % 0 in
21:32 54 °F 43.3 °F 29.9 in NE 6 mph 9 mph 67 % 0 in
21:42 53.8 °F 43.2 °F 29.9 in North 5 mph 9 mph 67 % 0 in
21:47 53.4 °F 42.8 °F 29.9 in ENE 6 mph 10 mph 67 % 0 in
21:52 53.4 °F 43.2 °F 29.9 in NE 6 mph 10 mph 68 % 0 in
21:57 53.2 °F 43 °F 29.9 in ENE 6 mph 11 mph 68 % 0 in
22:02 53.1 °F 43.2 °F 29.9 in NNE 5 mph 11 mph 69 % 0 in
22:07 52.9 °F 43 °F 29.9 in NE 5 mph 11 mph 69 % 0 in
22:12 52.5 °F 42.6 °F 29.9 in NE 6 mph 9 mph 69 % 0 in
22:17 52.5 °F 43 °F 29.9 in NE 7 mph 10 mph 70 % 0 in
22:22 52.3 °F 42.8 °F 29.9 in NE 4 mph 10 mph 70 % 0 in
22:27 52.2 °F 42.6 °F 29.9 in ENE 4 mph 11 mph 70 % 0 in
22:32 52.2 °F 42.6 °F 29.9 in North 2 mph 11 mph 70 % 0 in
22:42 52 °F 42.8 °F 29.9 in NE 6 mph 10 mph 71 % 0 in
22:47 51.6 °F 42.4 °F 29.9 in NE 6 mph 10 mph 71 % 0 in
22:52 51.4 °F 42.8 °F 29.9 in NE 6 mph 10 mph 72 % 0 in
22:57 51.3 °F 42.6 °F 29.9 in NE 6 mph 10 mph 72 % 0 in
23:02 51.1 °F 42.8 °F 29.9 in NE 5 mph 9 mph 73 % 0 in
23:12 50.7 °F 42.8 °F 29.9 in NNE 4 mph 11 mph 74 % 0 in
23:17 50.5 °F 42.6 °F 29.9 in ENE 6 mph 11 mph 74 % 0 in
23:22 50.5 °F 42.6 °F 29.9 in NE 7 mph 11 mph 74 % 0 in
23:27 50.4 °F 42.4 °F 29.9 in North 3 mph 11 mph 74 % 0 in
23:32 50.2 °F 42.3 °F 29.9 in ENE 4 mph 10 mph 74 % 0 in
23:42 49.8 °F 42.3 °F 29.9 in NNE 7 mph 9 mph 75 % 0 in
23:47 49.6 °F 42.1 °F 29.9 in ENE 6 mph 9 mph 75 % 0 in
23:52 49.6 °F 42.1 °F 29.9 in NE 3 mph 10 mph 75 % 0 in
23:57 49.3 °F 42.1 °F 29.9 in NE 4 mph 10 mph 76 % 0 in
Meteo18
Compliments of Weather Underground - 4 mb

Script developed by  Jim McMurry - jmcmurry@mwt.net Adapted for the template by  Wim van der Kuil - Leuven-Template.eu

You find our weather info also at:

European Weather Network

Weather Underground

Equipment we use:

Weather-station
Davis Vue

Weather-program
Meteohub

Weather-server
Raspberry PI 2 B+

Provider
1 and 1

Davis Vue

Meteohub

Raspberry PI 2 B+

1 and 1